PSMGL SBRJ-SBMT

Flight info

Callsign PSMGL
Flight time 0h 56m
Altitude 24000
Route KOVGO Z35 VUKIK
Aircraft SF50/L-SDGRWY/L

Departure

Time 2026-05-08 20:51
Airport Santos Dumont Airport (SBRJ)

Arrival

Time 2026-05-08 21:47
Airport Campo de Marte Airport (SBMT)
Time Latitude Longitude Altitude Speed Heading
2026-05-08 20:43 -22.90670 -43.16482 23 ft 0 kts 176°
2026-05-08 20:47 -22.90680 -43.16482 26 ft 4 kts 201°
2026-05-08 20:47 -22.90664 -43.16498 25 ft 6 kts 360°
2026-05-08 20:47 -22.90642 -43.16527 23 ft 7 kts 266°
2026-05-08 20:47 -22.90613 -43.16551 24 ft 5 kts
2026-05-08 20:48 -22.90576 -43.16553 24 ft 5 kts 357°
2026-05-08 20:48 -22.90540 -43.16555 24 ft 5 kts 357°
2026-05-08 20:48 -22.90501 -43.16542 24 ft 8 kts 60°
2026-05-08 20:48 -22.90498 -43.16514 23 ft 0 kts 90°
2026-05-08 20:49 -22.90497 -43.16498 23 ft 9 kts 86°
2026-05-08 20:50 -22.90489 -43.16407 21 ft 15 kts 74°
2026-05-08 20:50 -22.90481 -43.16319 21 ft 12 kts 184°
2026-05-08 20:50 -22.90603 -43.16309 22 ft 35 kts 177°
2026-05-08 20:50 -22.91034 -43.16282 20 ft 87 kts 175°
2026-05-08 20:51 -22.91735 -43.16229 196 ft 108 kts 175°
2026-05-08 20:51 -22.92471 -43.16037 488 ft 111 kts 151°
2026-05-08 20:51 -22.93026 -43.15469 819 ft 113 kts 128°
2026-05-08 20:51 -22.93579 -43.14756 1111 ft 132 kts 126°
2026-05-08 20:52 -22.94180 -43.13935 1540 ft 142 kts 127°
2026-05-08 20:52 -22.94970 -43.13280 2082 ft 148 kts 148°
2026-05-08 20:52 -22.95879 -43.12620 2351 ft 167 kts 136°
2026-05-08 20:52 -22.96463 -43.12051 2647 ft 175 kts 131°
2026-05-08 20:53 -22.97385 -43.11098 3035 ft 188 kts 134°
2026-05-08 20:53 -22.98472 -43.10296 3563 ft 194 kts 155°
2026-05-08 20:53 -23.00239 -43.10042 4280 ft 195 kts 189°
2026-05-08 20:53 -23.01510 -43.10506 4823 ft 192 kts 213°
2026-05-08 20:54 -23.02230 -43.11083 5176 ft 189 kts 226°
2026-05-08 20:54 -23.03240 -43.12004 5715 ft 189 kts 224°
2026-05-08 20:54 -23.04254 -43.12885 6207 ft 189 kts 225°
2026-05-08 20:54 -23.05291 -43.13813 6689 ft 192 kts 225°
2026-05-08 20:55 -23.06307 -43.14720 7155 ft 194 kts 226°
2026-05-08 20:55 -23.07356 -43.15654 7637 ft 196 kts 224°
2026-05-08 20:55 -23.08434 -43.16580 8091 ft 198 kts 224°
2026-05-08 20:55 -23.09519 -43.17524 8550 ft 201 kts 224°
2026-05-08 20:56 -23.10616 -43.18478 9017 ft 203 kts 224°
2026-05-08 20:56 -23.11723 -43.19445 9459 ft 206 kts 224°
2026-05-08 20:56 -23.12848 -43.20424 9897 ft 208 kts 223°
2026-05-08 20:56 -23.13980 -43.21411 10312 ft 209 kts 223°
2026-05-08 20:57 -23.15119 -43.22404 10733 ft 211 kts 223°
2026-05-08 20:57 -23.16262 -43.23398 11173 ft 210 kts 224°
2026-05-08 20:57 -23.17396 -43.24388 11563 ft 213 kts 224°
2026-05-08 20:57 -23.18559 -43.25402 11954 ft 215 kts 224°
2026-05-08 20:58 -23.19732 -43.26423 12356 ft 217 kts 223°
2026-05-08 20:58 -23.20904 -43.27445 12811 ft 216 kts 223°
2026-05-08 20:58 -23.22083 -43.28475 13195 ft 219 kts 223°
2026-05-08 20:58 -23.23271 -43.29512 13597 ft 219 kts 222°
2026-05-08 20:59 -23.24460 -43.30551 13997 ft 219 kts 222°
2026-05-08 20:59 -23.25651 -43.31593 14327 ft 221 kts 223°
2026-05-08 20:59 -23.26855 -43.32644 14668 ft 222 kts 223°
2026-05-08 20:59 -23.28064 -43.33701 15018 ft 223 kts 223°
2026-05-08 21:00 -23.29276 -43.34759 15353 ft 224 kts 224°
2026-05-08 21:00 -23.30498 -43.35825 15689 ft 225 kts 223°
2026-05-08 21:00 -23.31719 -43.36893 16021 ft 226 kts 224°
2026-05-08 21:00 -23.32899 -43.38013 16346 ft 223 kts 234°
2026-05-08 21:01 -23.33716 -43.39411 16673 ft 217 kts 251°
2026-05-08 21:01 -23.34150 -43.40959 16985 ft 213 kts 263°
2026-05-08 21:01 -23.34506 -43.42504 17281 ft 214 kts 261°
2026-05-08 21:01 -23.34886 -43.44074 17593 ft 215 kts 261°
2026-05-08 21:02 -23.35256 -43.45648 17912 ft 215 kts 262°
2026-05-08 21:02 -23.35628 -43.47233 18212 ft 216 kts 262°
2026-05-08 21:02 -23.35997 -43.48815 18461 ft 217 kts 262°
2026-05-08 21:02 -23.36370 -43.50406 18716 ft 217 kts 261°
2026-05-08 21:03 -23.36745 -43.52001 18964 ft 218 kts 261°
2026-05-08 21:03 -23.37120 -43.53601 19211 ft 219 kts 261°
2026-05-08 21:03 -23.37497 -43.55206 19455 ft 219 kts 261°
2026-05-08 21:03 -23.37873 -43.56818 19695 ft 220 kts 261°
2026-05-08 21:04 -23.38254 -43.58437 19935 ft 221 kts 261°
2026-05-08 21:04 -23.38633 -43.60059 20171 ft 221 kts 261°
2026-05-08 21:04 -23.39013 -43.61685 20409 ft 222 kts 261°
2026-05-08 21:04 -23.39393 -43.63316 20644 ft 223 kts 261°
2026-05-08 21:05 -23.39774 -43.64950 20895 ft 222 kts 260°
2026-05-08 21:05 -23.40150 -43.66560 21153 ft 222 kts 261°
2026-05-08 21:05 -23.40528 -43.68184 21411 ft 221 kts 260°
2026-05-08 21:05 -23.40906 -43.69803 21667 ft 220 kts 260°
2026-05-08 21:06 -23.41281 -43.71420 21918 ft 220 kts 260°
2026-05-08 21:06 -23.41659 -43.73037 22178 ft 220 kts 260°
2026-05-08 21:06 -23.42034 -43.74647 22438 ft 219 kts 260°
2026-05-08 21:06 -23.42408 -43.76254 22699 ft 219 kts 260°
2026-05-08 21:07 -23.42783 -43.77856 22973 ft 218 kts 260°
2026-05-08 21:07 -23.43155 -43.79459 23240 ft 218 kts 260°
2026-05-08 21:07 -23.43527 -43.81058 23495 ft 217 kts 260°
2026-05-08 21:07 -23.43897 -43.82650 23718 ft 217 kts 260°
2026-05-08 21:08 -23.44266 -43.84241 23932 ft 217 kts 260°
2026-05-08 21:08 -23.44637 -43.85858 23946 ft 225 kts 260°
2026-05-08 21:08 -23.45024 -43.87528 23954 ft 232 kts 260°
2026-05-08 21:08 -23.45423 -43.89255 23960 ft 238 kts 260°
2026-05-08 21:09 -23.45830 -43.91014 23957 ft 242 kts 260°
2026-05-08 21:09 -23.46243 -43.92800 23957 ft 245 kts 259°
2026-05-08 21:09 -23.46662 -43.94613 23957 ft 248 kts 259°
2026-05-08 21:09 -23.47086 -43.96444 23956 ft 250 kts 259°
2026-05-08 21:10 -23.47515 -43.98291 23956 ft 253 kts 259°
2026-05-08 21:10 -23.47946 -44.00159 23955 ft 255 kts 259°
2026-05-08 21:10 -23.48379 -44.02035 23955 ft 256 kts 259°
2026-05-08 21:10 -23.48815 -44.03922 23949 ft 258 kts 260°
2026-05-08 21:11 -23.49252 -44.05819 23951 ft 259 kts 259°
2026-05-08 21:11 -23.49691 -44.07723 23947 ft 260 kts 259°
2026-05-08 21:11 -23.50131 -44.09633 23950 ft 260 kts 260°
2026-05-08 21:11 -23.50570 -44.11549 23949 ft 261 kts 259°
2026-05-08 21:12 -23.51012 -44.13469 23952 ft 262 kts 260°
2026-05-08 21:12 -23.51454 -44.15395 23951 ft 262 kts 260°
2026-05-08 21:12 -23.51903 -44.17327 23951 ft 264 kts 259°
2026-05-08 21:12 -23.52370 -44.19262 23947 ft 264 kts 259°
2026-05-08 21:13 -23.52827 -44.21179 23952 ft 265 kts 259°
2026-05-08 21:13 -23.53289 -44.23130 23953 ft 267 kts 259°
2026-05-08 21:13 -23.53756 -44.25096 23946 ft 268 kts 259°
2026-05-08 21:13 -23.54222 -44.27068 23949 ft 269 kts 260°
2026-05-08 21:14 -23.54672 -44.29060 23951 ft 271 kts 260°
2026-05-08 21:14 -23.55122 -44.31057 23950 ft 272 kts 260°
2026-05-08 21:14 -23.55581 -44.33062 23949 ft 273 kts 260°
2026-05-08 21:14 -23.56040 -44.35074 23950 ft 274 kts 260°
2026-05-08 21:15 -23.56499 -44.37091 23949 ft 274 kts 260°
2026-05-08 21:15 -23.56952 -44.39084 23951 ft 275 kts 260°
2026-05-08 21:15 -23.57412 -44.41112 23945 ft 275 kts 260°
2026-05-08 21:15 -23.57873 -44.43138 23946 ft 275 kts 260°
2026-05-08 21:16 -23.58333 -44.45168 23948 ft 276 kts 260°
2026-05-08 21:16 -23.58793 -44.47194 23947 ft 276 kts 260°
2026-05-08 21:16 -23.59253 -44.49226 23948 ft 276 kts 260°
2026-05-08 21:16 -23.59714 -44.51254 23947 ft 276 kts 260°
2026-05-08 21:17 -23.60176 -44.53288 23946 ft 276 kts 260°
2026-05-08 21:17 -23.60633 -44.55313 23944 ft 276 kts 260°
2026-05-08 21:17 -23.61094 -44.57348 23943 ft 276 kts 261°
2026-05-08 21:17 -23.61549 -44.59356 23943 ft 276 kts 261°
2026-05-08 21:18 -23.62007 -44.61384 23945 ft 275 kts 261°
2026-05-08 21:18 -23.62464 -44.63410 23949 ft 275 kts 261°
2026-05-08 21:18 -23.62920 -44.65434 23948 ft 275 kts 261°
2026-05-08 21:18 -23.63375 -44.67455 23948 ft 274 kts 261°
2026-05-08 21:19 -23.63832 -44.69480 23954 ft 274 kts 261°
2026-05-08 21:19 -23.64287 -44.71504 23945 ft 274 kts 261°
2026-05-08 21:19 -23.64741 -44.73523 23945 ft 274 kts 261°
2026-05-08 21:19 -23.65196 -44.75546 23945 ft 274 kts 261°
2026-05-08 21:20 -23.65649 -44.77565 23948 ft 274 kts 261°
2026-05-08 21:20 -23.66104 -44.79582 23948 ft 273 kts 261°
2026-05-08 21:20 -23.66309 -44.81594 23947 ft 268 kts 273°
2026-05-08 21:20 -23.66268 -44.83650 23948 ft 267 kts 276°
2026-05-08 21:21 -23.66184 -44.85647 23953 ft 267 kts 276°
2026-05-08 21:21 -23.66089 -44.87667 23953 ft 267 kts 276°
2026-05-08 21:21 -23.65993 -44.89686 23952 ft 266 kts 276°
2026-05-08 21:21 -23.65889 -44.91702 23944 ft 266 kts 277°
2026-05-08 21:22 -23.65760 -44.93714 23949 ft 266 kts 277°
2026-05-08 21:22 -23.65627 -44.95729 23949 ft 266 kts 277°
2026-05-08 21:22 -23.65491 -44.97740 23949 ft 266 kts 277°
2026-05-08 21:22 -23.65354 -44.99751 23949 ft 266 kts 277°
2026-05-08 21:23 -23.65217 -45.01760 23950 ft 266 kts 277°
2026-05-08 21:23 -23.65080 -45.03769 23950 ft 266 kts 277°
2026-05-08 21:23 -23.64944 -45.05779 23950 ft 266 kts 277°
2026-05-08 21:23 -23.64808 -45.07788 23958 ft 266 kts 277°
2026-05-08 21:24 -23.64675 -45.09775 23961 ft 266 kts 277°
2026-05-08 21:24 -23.64539 -45.11808 23961 ft 266 kts 277°
2026-05-08 21:24 -23.64406 -45.13794 23961 ft 266 kts 277°
2026-05-08 21:24 -23.64272 -45.15800 23961 ft 266 kts 277°
2026-05-08 21:25 -23.64138 -45.17813 23958 ft 265 kts 277°
2026-05-08 21:25 -23.64039 -45.19824 23958 ft 267 kts 274°
2026-05-08 21:25 -23.64172 -45.21854 23956 ft 268 kts 269°
2026-05-08 21:25 -23.64460 -45.23871 23956 ft 270 kts 264°
2026-05-08 21:26 -23.64851 -45.25879 23901 ft 273 kts 263°
2026-05-08 21:26 -23.65265 -45.27924 23684 ft 280 kts 263°
2026-05-08 21:26 -23.65691 -45.30029 23458 ft 286 kts 263°
2026-05-08 21:26 -23.66121 -45.32169 23196 ft 291 kts 263°
2026-05-08 21:27 -23.66557 -45.34343 22944 ft 294 kts 263°
2026-05-08 21:27 -23.66992 -45.36521 22697 ft 295 kts 263°
2026-05-08 21:27 -23.67430 -45.38710 22441 ft 296 kts 263°
2026-05-08 21:27 -23.67866 -45.40873 22196 ft 296 kts 263°
2026-05-08 21:28 -23.68191 -45.43068 21939 ft 290 kts 272°
2026-05-08 21:28 -23.68079 -45.45256 21689 ft 287 kts 280°
2026-05-08 21:28 -23.67724 -45.47401 21436 ft 288 kts 286°
2026-05-08 21:28 -23.67244 -45.49533 21193 ft 291 kts 287°
2026-05-08 21:29 -23.66731 -45.51673 20958 ft 292 kts 288°
2026-05-08 21:29 -23.66217 -45.53809 20719 ft 291 kts 288°
2026-05-08 21:29 -23.65707 -45.55939 20473 ft 289 kts 288°
2026-05-08 21:29 -23.65200 -45.58062 20232 ft 291 kts 288°
2026-05-08 21:30 -23.64680 -45.60203 19998 ft 293 kts 288°
2026-05-08 21:30 -23.64152 -45.62362 19759 ft 296 kts 288°
2026-05-08 21:30 -23.63623 -45.64540 19529 ft 297 kts 288°
2026-05-08 21:30 -23.63173 -45.66743 19294 ft 300 kts 281°
2026-05-08 21:31 -23.63249 -45.69014 19066 ft 306 kts 267°
2026-05-08 21:31 -23.63606 -45.71301 18834 ft 308 kts 264°
2026-05-08 21:31 -23.64022 -45.73603 18611 ft 309 kts 263°
2026-05-08 21:31 -23.64426 -45.75901 18385 ft 308 kts 265°
2026-05-08 21:32 -23.64701 -45.78205 18149 ft 306 kts 269°
2026-05-08 21:32 -23.64783 -45.80521 17892 ft 305 kts 274°
2026-05-08 21:32 -23.64776 -45.82832 17646 ft 305 kts 275°
2026-05-08 21:32 -23.64748 -45.85146 17392 ft 305 kts 275°
2026-05-08 21:33 -23.64684 -45.87446 17138 ft 304 kts 276°
2026-05-08 21:33 -23.64581 -45.89750 16889 ft 303 kts 277°
2026-05-08 21:33 -23.64467 -45.92046 16639 ft 303 kts 277°
2026-05-08 21:33 -23.64348 -45.94346 16389 ft 303 kts 277°
2026-05-08 21:34 -23.64231 -45.96641 16150 ft 303 kts 277°
2026-05-08 21:34 -23.64114 -45.98932 15916 ft 303 kts 277°
2026-05-08 21:34 -23.63992 -46.01223 15668 ft 301 kts 277°
2026-05-08 21:34 -23.63864 -46.03497 15430 ft 300 kts 277°
2026-05-08 21:35 -23.63742 -46.05733 15211 ft 299 kts 277°
2026-05-08 21:35 -23.63619 -46.07994 14973 ft 298 kts 277°
2026-05-08 21:35 -23.63492 -46.10246 14741 ft 297 kts 277°
2026-05-08 21:35 -23.63366 -46.12452 14436 ft 279 kts 277°
2026-05-08 21:36 -23.63257 -46.14509 14084 ft 268 kts 277°
2026-05-08 21:36 -23.63141 -46.16588 13744 ft 281 kts 277°
2026-05-08 21:36 -23.63015 -46.18745 13374 ft 287 kts 277°
2026-05-08 21:36 -23.62896 -46.20923 12978 ft 288 kts 277°
2026-05-08 21:37 -23.62785 -46.23101 12480 ft 286 kts 276°
2026-05-08 21:37 -23.62767 -46.25260 11986 ft 282 kts 274°
2026-05-08 21:37 -23.62796 -46.27384 11499 ft 280 kts 273°
2026-05-08 21:37 -23.62836 -46.29508 11032 ft 279 kts 273°
2026-05-08 21:38 -23.62816 -46.31576 10568 ft 264 kts 279°
2026-05-08 21:38 -23.62505 -46.33388 10099 ft 225 kts 287°
2026-05-08 21:38 -23.62065 -46.34938 9604 ft 207 kts 292°
2026-05-08 21:38 -23.61595 -46.36403 9076 ft 203 kts 294°
2026-05-08 21:39 -23.61127 -46.37858 8529 ft 202 kts 293°
2026-05-08 21:39 -23.60675 -46.39293 7984 ft 200 kts 294°
2026-05-08 21:39 -23.60171 -46.40704 7436 ft 200 kts 295°
2026-05-08 21:39 -23.59679 -46.42100 7007 ft 195 kts 293°
2026-05-08 21:40 -23.59308 -46.43497 6468 ft 189 kts 287°
2026-05-08 21:40 -23.58993 -46.44869 6022 ft 184 kts 289°
2026-05-08 21:40 -23.58669 -46.46181 5672 ft 173 kts 290°
2026-05-08 21:41 -23.57968 -46.48579 5062 ft 158 kts 301°
2026-05-08 21:41 -23.57629 -46.49272 4932 ft 154 kts 302°
2026-05-08 21:41 -23.56950 -46.50630 4884 ft 153 kts 303°
2026-05-08 21:41 -23.56604 -46.51304 4881 ft 153 kts 303°
2026-05-08 21:42 -23.56091 -46.52312 4885 ft 151 kts 303°
2026-05-08 21:42 -23.55590 -46.53332 4860 ft 153 kts 301°
2026-05-08 21:42 -23.55101 -46.54378 4729 ft 158 kts 301°
2026-05-08 21:42 -23.54605 -46.55456 4585 ft 159 kts 300°
2026-05-08 21:43 -23.54117 -46.56546 4331 ft 161 kts 298°
2026-05-08 21:43 -23.53670 -46.57644 4218 ft 157 kts 291°
2026-05-08 21:43 -23.53514 -46.58814 4141 ft 155 kts 275°
2026-05-08 21:43 -23.53487 -46.59982 4018 ft 155 kts 278°
2026-05-08 21:44 -23.53417 -46.61150 3959 ft 152 kts 279°
2026-05-08 21:44 -23.53331 -46.62292 3939 ft 152 kts 279°
2026-05-08 21:44 -23.53191 -46.63437 3885 ft 153 kts 286°
2026-05-08 21:44 -23.52940 -46.64577 3734 ft 154 kts 287°
2026-05-08 21:45 -23.52713 -46.65708 3708 ft 151 kts 287°
2026-05-08 21:45 -23.52473 -46.66819 3735 ft 148 kts 288°
2026-05-08 21:45 -23.52141 -46.67809 3831 ft 134 kts 309°
2026-05-08 21:45 -23.51409 -46.68296 3875 ft 111 kts 349°
2026-05-08 21:46 -23.50805 -46.67967 3692 ft 106 kts 50°
2026-05-08 21:46 -23.50488 -46.67222 3301 ft 106 kts 63°
2026-05-08 21:46 -23.50461 -46.66457 3000 ft 104 kts 99°
2026-05-08 21:46 -23.50586 -46.65698 2777 ft 102 kts 99°
2026-05-08 21:47 -23.50715 -46.64935 2594 ft 99 kts 98°
2026-05-08 21:47 -23.50835 -46.64221 2382 ft 91 kts 98°
2026-05-08 21:47 -23.50916 -46.63704 2374 ft 31 kts 101°
2026-05-08 21:47 -23.50947 -46.63548 2375 ft 18 kts 98°
2026-05-08 21:48 -23.51005 -46.63448 2374 ft 16 kts 184°
2026-05-08 21:48 -23.51102 -46.63440 2374 ft 12 kts 172°
2026-05-08 21:48 -23.51174 -46.63428 2374 ft 10 kts 167°
2026-05-08 21:48 -23.51214 -46.63394 2374 ft 6 kts 92°
2026-05-08 21:49 -23.51194 -46.63378 2374 ft 2 kts 31°
2026-05-08 21:49 -23.51188 -46.63375 2374 ft 0 kts 359°